Location: Cabeza de la Parra
(40.3930°N, 4.5391°W)
Time: 04:51:38
(UTC+00:00)

Daily predictions for brighter satellites

Satellite Brightness Start Highest point End
(mag) Time Altitude Azimuth Time Altitude Azimuth Time Altitude Azimuth
ADEOS II 4.3 02:56:50 10° N 02:58:10 18° N 02:58:10 18° N
Cosmos 1934 Rocket 4.5 03:08:36 56° E 03:08:47 56° E 03:14:59 10° NNE
Tiangong 1.3 03:38:03 11° E 03:38:03 11° E 03:38:16 10° E
Atlas Centaur 2 3.7 03:36:13 34° S 03:36:28 34° S 03:42:55 10° ESE
X-37B 4.0 03:43:15 11° ENE 03:43:15 11° ENE 03:43:27 10° ENE
Cosmos 1656 4.3 03:38:05 10° NNW 03:43:42 55° ENE 03:49:14 10° SE
ALOS 2.8 03:40:32 10° NNE 03:44:08 53° NNE 03:44:08 53° NNE
BREEZE-M R/B 4.4 03:49:01 47° NW 03:50:12 53° NNW 04:00:47 10° ENE
USA 307 4.0 03:51:03 39° ESE 03:51:03 39° ESE 03:54:28 10° ENE
Helios 1B rocket 2.8 03:51:58 10° NNE 03:55:38 60° ENE 03:55:38 60° ENE
Meteor 1-5 Rocket 3.9 03:50:59 10° N 03:56:25 84° W 03:57:32 57° S
ARIANE 5 R/B 3.1 03:52:52 10° NNE 03:57:48 52° E 04:00:51 22° S
USA 306 3.0 04:05:17 67° ESE 04:05:17 67° ESE 04:09:10 10° NE
CZ-3 R/B 4.3 03:53:52 22° SW 04:08:51 38° S 04:17:50 10° ESE
Cosmos 1484 Rocket 3.8 04:06:35 10° NNE 04:10:25 45° E 04:12:53 20° SSE
Cosmos 2098 Rocket 4.0 04:12:46 10° NNE 04:15:22 30° E 04:18:03 10° SE
Cosmos 1666 Rocket 4.2 04:11:07 10° N 04:15:32 57° E 04:19:56 10° SSE
Cosmos 1328 Rocket 4.2 04:15:16 10° S 04:19:29 54° E 04:23:47 10° NNE
Cosmos 1833 Rocket 2.6 04:19:47 31° SSW 04:22:39 88° WNW 04:28:20 10° NNE
BREEZE-M DEB (TANK) 4.0 04:20:00 24° WNW 04:22:45 42° N 04:25:27 10° ENE
CZ-2C R/B 2.6 04:19:38 10° N 04:24:28 49° WNW 04:25:10 45° W
USA 234 3.3 04:17:59 10° NE 04:24:32 75° SE 04:28:44 24° SW
USA 308 2.7 04:24:31 59° SW 04:25:14 83° SE 04:29:23 10° NE
Cosmos 1515 3.8 04:23:59 31° S 04:25:38 72° E 04:29:22 10° NNE
ERBS 3.6 04:28:10 26° N 04:28:10 26° N 04:29:53 10° NNE
Cosmos 1371 Rocket 4.0 04:23:46 21° SSW 04:27:24 84° ESE 04:32:41 10° NNE
Cosmos 2251 Rocket 3.6 04:22:36 10° NNW 04:27:40 50° WSW 04:32:41 10° S
OceanSat 1 rocket 4.5 04:23:18 10° NNE 04:28:03 82° WNW 04:31:10 22° SSW
Aureole 3 3.6 04:28:39 48° WNW 04:28:39 48° WNW 04:32:00 10° N
CZ-2C R/B 3.9 04:27:24 10° NNE 04:29:34 33° E 04:34:03 10° SSE
Envisat 3.5 04:25:29 10° NNE 04:30:32 61° E 04:35:32 10° S
COSMOS 2406 3.8 04:26:15 10° S 04:31:47 57° ESE 04:37:19 10° NNE
Cosmos 2082 Rocket 3.3 04:27:50 10° S 04:33:05 43° ESE 04:38:21 10° NE
Cosmos 1536 3.8 04:29:13 10° N 04:33:09 49° E 04:37:04 10° SSE
IRS-1C 4.1 04:28:12 10° N 04:33:29 62° WNW 04:36:46 23° SW
Cosmos 1447 Rocket 4.4 04:28:34 10° N 04:34:54 79° W 04:41:09 10° S
Meteor 2-6 Rocket 4.3 04:35:16 31° SW 04:37:26 47° WNW 04:42:41 10° N
Cosmos 1151 Rocket 3.1 04:36:50 40° SW 04:37:53 50° W 04:42:03 10° N
YAOGAN 6 2.5 04:37:23 10° NNE 04:41:02 89° ENE 04:43:58 15° SSW
Sich 1 4.1 04:38:21 10° NNW 04:40:54 26° WNW 04:40:54 26° WNW
Cosmos 1140 Rocket 3.6 04:39:32 10° NNW 04:44:32 50° WSW 04:49:33 10° S
IKONOS-2 4.4 04:41:25 10° SSE 04:45:38 89° WNW 04:49:52 10° NNW
Cosmos 1470 Rocket 4.1 04:42:13 10° N 04:46:30 58° E 04:50:46 10° SSE
Cosmos 1697 Rocket 2.7 04:42:55 10° NNW 04:48:37 85° ENE 04:54:16 10° SSE
Cosmos 1356 3.7 04:49:23 39° WNW 04:49:24 39° WNW 04:52:29 10° N
Cosmos 1346 Rocket 2.7 04:47:03 18° SSW 04:49:50 60° W 04:53:47 10° N
ASTRO E2 4.4 04:49:27 17° SSW 04:50:52 20° S 04:53:47 10° SE
ATLAS CENTAUR R/B 1.8 04:47:28 14° SSW 04:51:36 79° ESE 04:56:31 10° NE
BREEZE M DEB (TANK) 4.1 04:37:32 16° SW 04:51:54 90° NW 04:56:30 10° ENE
Cosmos 2084 4.1 04:54:00 28° W 04:54:47 30° WSW 04:58:33 10° S
USA 305 3.3 04:53:50 28° W 04:55:33 45° NW 04:59:32 10° NE
Cosmos 2056 Rocket 3.5 04:53:44 14° SW 04:57:59 55° WNW 05:03:01 10° N
BREEZE-M DEB (TANK) 4.2 04:56:15 11° NW 04:58:09 16° N 04:59:48 10° NE
Cosmos 1743 2.5 04:54:35 10° N 04:58:22 76° W 05:02:09 10° S
Cosmos 1441 Rocket 3.1 04:57:18 10° SSW 05:00:56 61° W 05:04:38 10° N
Meteor 1-27 Rocket 3.7 04:55:19 10° SSW 05:01:01 75° W 05:06:53 10° N
CZ-2C R/B 3.2 04:57:45 10° NNE 05:01:29 63° ESE 05:05:15 10° S
CZ-2C R/B 2.8 04:57:10 10° S 05:02:08 46° W 05:07:12 10° NNW
Cosmos 1802 Rocket 4.3 04:57:17 10° S 05:03:40 76° E 05:10:01 10° N
Cosmos 1190 Rocket 4.0 04:59:14 10° NNW 05:04:20 58° WSW 05:09:26 10° S
DELTA 2 DEB (DPAF) 4.4 05:00:51 10° S 05:05:02 43° W 05:09:14 10° NNW
Cosmos 1954 Rocket 4.0 05:00:39 10° NNW 05:05:54 87° WSW 05:11:10 10° SSE
Cosmos 1459 Rocket 4.0 05:02:08 10° S 05:08:26 80° W 05:14:51 10° N
Cosmos 1420 Rocket 4.2 05:05:07 10° SW 05:10:13 51° WNW 05:15:19 10° N
COSMO-SKYMED 1 3.8 05:06:23 10° SE 05:10:31 45° ENE 05:14:40 10° N
CENTAUR R/B 3.2 05:05:12 10° SSW 05:10:32 52° ESE 05:16:56 10° NE
Tiangong -1.7 05:10:11 23° W 05:11:49 44° SSW 05:14:49 10° SE
Cosmos 1378 3.7 05:09:57 10° S 05:13:31 59° E 05:17:06 10° NNE
CZ-4C R/B 3.3 05:09:54 10° S 05:13:55 78° WSW 05:18:10 10° NNW
Spot 4 Rocket 4.0 05:09:07 10° N 05:14:11 62° WNW 05:19:14 10° SSW
DELTA 2 R/B (1) 3.8 05:10:46 15° WSW 05:15:21 68° SSE 05:20:55 10° E
Meteor 1-29 3.4 05:13:01 10° N 05:16:05 36° WNW 05:19:07 10° SW
X-37B 1.3 05:14:29 18° WNW 05:16:12 37° N 05:18:54 10° ENE
Cosmos 407 Rocket 4.3 05:12:36 10° NW 05:17:07 29° W 05:21:37 10° SSW
CZ-2D R/B 4.4 05:14:12 10° NNW 05:17:30 26° WNW 05:20:40 11° SW
Okean 1 3.3 05:14:13 10° S 05:18:15 89° E 05:22:19 10° N
H-2A ROCKET BODY 4.1 05:13:00 12° WSW 05:18:22 34° S 05:39:06 10° ESE
SJ-12 4.2 05:15:13 10° NNE 05:19:17 71° ESE 05:23:21 10° S
Cosmos 1725 Rocket 4.3 05:13:08 10° S 05:19:24 77° E 05:25:44 10° N
ALOS 4.3 05:21:18 10° NW 05:21:51 10° WNW 05:22:24 10° WNW
NOSS 3-2 (A) 3.6 05:16:46 10° SSW 05:21:59 65° ESE 05:27:58 10° NE
Lacrosse 4 Rocket 4.4 05:20:08 10° NNE 05:22:21 14° NE 05:24:34 10° ENE
Atlas Centaur 2 3.6 05:18:44 11° WSW 05:25:19 37° S 05:31:12 10° ESE
Meteor 2-9 Rocket 4.4 05:19:52 10° N 05:25:41 83° E 05:31:18 10° S
Cosmos 2369 3.7 05:20:45 10° NNW 05:26:28 89° WSW 05:32:07 10° SSE
Cosmos 1980 Rocket 2.3 05:21:30 10° NNW 05:27:08 86° ENE 05:32:44 10° SSE
H-2A R/B 3.0 05:25:42 10° N 05:29:07 40° WNW 05:32:33 10° SW
USA 307 3.8 05:26:40 12° W 05:30:01 33° NNW 05:33:48 10° NE
MINOTAUR 4 R/B 3.9 05:27:02 10° S 05:30:31 75° W 05:34:01 10° NNW
Helios 1B rocket 4.4 05:29:36 10° NW 05:30:34 11° WNW 05:31:33 10° WNW
Cosmos 2173 Rocket 4.2 05:29:39 10° SSW 05:35:32 46° WNW 05:41:23 10° N
ARIANE 5 R/B 3.9 05:33:02 10° NNW 05:36:27 19° WNW 05:39:51 10° WSW
SL-08 R/B 4.2 05:34:28 10° SSW 05:38:16 25° W 05:42:09 10° NW
GP-B 3.4 05:35:45 10° SSW 05:39:57 43° W 05:44:11 10° NNW
SL-16 R/B 4.3 05:35:25 10° N 05:40:23 30° ENE 05:45:18 10° ESE
Cosmos 1975 3.8 05:37:38 10° N 05:41:33 52° E 05:45:26 10° SSE
Cosmos 1633 Rocket 4.4 05:40:13 10° NW 05:43:10 18° W 05:46:06 10° SW
USA 306 4.3 05:41:22 10° W 05:44:45 24° NNW 05:48:09 10° NNE
CZ-4B R/B 3.6 05:40:23 10° N 05:45:34 70° WNW 05:50:48 10° SSW
Cosmos 1331 Rocket 4.3 05:41:12 10° S 05:46:18 74° ESE 05:51:27 10° NNE
